Starlink 32861

operational
NORAD ID: 62870 Int'l Des: 2025-022 Owner: SPXS Country: US Constellation: starlink
LEOCIRCULAR

Über Starlink 32861

Beschreibung wird geladen...

Live-Position

3D-Globus wird geladen...

Nächste Überflüge

Höhenverlauf

Altitude vs Time

uPlot chart will show altitude changes over time

Zweizeiliger Elementsatz

1 62870U 25022S 25353.54597523 .00020584 00000-0 70504-3 0 9990
2 62870 53.1585 141.5969 0000984 70.4705 289.6402 15.30205593 49637
Epoch: 19. Dez. 2025 • Age: 17 hours

Aktueller Status

Höhe 476.1 km
Geschwindigkeit 7.63 km/s
Subsatellitenpunkt 29.07°N, 24.02°W
Startdatum 2. Feb. 2025
Alter 0.8 years
Typ internet

Technische Details

Klassifizierung Payload
Masse 730.00 kg
Trockenmasse 700.00 kg
Gesamtmasse 730.00 kg
Länge 0.30 m
Durchmesser 4.10 m
Spannweite 29.00 m
Form Box + pan
Hersteller SPXS
Bus-Typ Starlink V2M
Phasenstatus In Orbit
Besitzer/Staat SPXS/US

Große Konstellationen

Loading constellations...